Regional Weather Roundup
Issued by NWS Upton, NY

Home | Current Version | Previous Version | Text Only | Print | Product List | Glossary On
Versions: 1 2 3 4 5 6 7 8 9 10 11 12 13 14 15 16 17 18 19 20 21 22 23 24 25 26 27 28 29 30 31 32 33 34 35 36 37 38 39 40 41 42 43 44 45 46 47 48 49 50
000
ASUS41 KOKX 201809
RWROKX

REGIONAL WEATHER ROUNDUP
NATIONAL WEATHER SERVICE NEW YORK NY
200 PM EDT THU JUL 20 2017

NOTE: "FAIR" INDICATES FEW OR NO CLOUDS BELOW 12,000 FEET WITH NO
SIGNIFICANT WEATHER AND/OR OBSTRUCTIONS TO VISIBILITY.

NYZ071-072-176-178-NJZ106-104-201900-
NEW YORK CITY METRO AREA

CITY           SKY/WX    TMP DP  RH WIND       PRES   REMARKS
Central Park   SUNNY     93  67  42 W7        29.94F HX  96
Bronx Bot Gard   N/A     91  64  40 SW15      29.91F HX  93
LaGuardia APRT MOSUNNY   94  68  42 W7G18     29.90F HX  98
Kennedy INTL   PTSUNNY   94  70  45 S14       29.92F HX 100
Breezy Point     N/A     88 N/A N/A S8          N/A
Newark/Liberty PTSUNNY   96  67  38 W9G23     29.91F HX 100
Teterboro      MOSUNNY   94  66  39 W13G20    29.90F HX  97
$$

NYZ177-179-078>081-201900-
LONG ISLAND NEW YORK

CITY           SKY/WX    TMP DP  RH WIND       PRES   REMARKS
Jones Beach      N/A     86 N/A N/A S7          N/A
Matinecock PT    N/A     88 N/A N/A SW2         N/A
Farmingdale    MOSUNNY   91  69  48 SW10      29.92F HX  96
MacArthur/ISP  PTSUNNY   91  73  55 S9        29.92F HX  99
Shirley        MOSUNNY   91  71  51 S9        29.93F HX  97
Mt Sinai Harb    N/A     84 N/A N/A NE2         N/A
Westhampton    MOSUNNY   87  70  56 S8        29.94F HX  92
East Hampton   FAIR      86  65  48 S8        29.92F
Montauk          N/A     87  67  51 VRB6      29.94F HX  90
$$

NYZ052-065-067-201900-
HUDSON VALLEY

CITY           SKY/WX    TMP DP  RH WIND       PRES   REMARKS
White Plains   MOSUNNY   91  66  43 VRB6      29.93F HX  94
Larchmont Harb   N/A     90 N/A N/A W7G16       N/A
Croton O-T Hud   N/A     90 N/A N/A CALM        N/A
Newburgh       MOSUNNY   88  72  58 W6G17     29.94F HX  94
Montgomery     SUNNY     90  69  50 W8        29.91F HX  94
Poughkeepsie   MOSUNNY   90  68  48 SW9       29.89F HX  94
Albany         PTSUNNY   86  68  54 N8        29.89F
$$

NJZ001-105-106-008-010-013-015-019>022-104-201900-
NEW JERSEY

CITY           SKY/WX    TMP DP  RH WIND       PRES   REMARKS
Newark/Liberty PTSUNNY   96  67  38 W9G23     29.91F HX 100
Teterboro      MOSUNNY   94  66  39 W13G20    29.90F HX  97
Caldwell       SUNNY     92  66  42 W9        29.92F HX  94
Somerville     SUNNY     92  69  47 VRB5      29.91F HX  97
Linden         NOT AVBL
Perth Amboy      N/A     90 N/A N/A W14         N/A
Sussex         MOSUNNY   88  71  57 SW6       29.94F HX  94
Andover          N/A     88  67  49 VRB5      29.95F HX  91
Trenton        SUNNY     92  69  47 VRB7      29.93F HX  97
Millville      SUNNY     93  74  53 W14       29.97S HX 103
Atlantic City  PTSUNNY   93  70  46 SW13G18   29.95F HX  99
Wrightstown    MOSUNNY   94  70  45 W10       29.90F HX  99
Toms River     MOSUNNY   96  69  41 W14       29.94F HX 102
Belmar         MOSUNNY   95  71  45 W10       29.94F HX 102
$$

PAZ047>061-062-071-201900-
EASTERN PENNSYLVANIA

CITY           SKY/WX    TMP DP  RH WIND       PRES   REMARKS
Philadelphia   CLOUDY    94  66  39 W15       29.95F HX  97
Allentown      MOSUNNY   91  66  43 NW10      29.95F HX  93
Scranton       MOSUNNY   88  70  55 SW13      29.96F HX  93
$$

CTZ002-004>006-009-010-012-RIZ004-006-007-MAZ004-011-015-201900-
SOUTHERN NEW ENGLAND
 IN CT

CITY           SKY/WX    TMP DP  RH WIND       PRES   REMARKS
Bradley INTL   PTSUNNY   90  65  43 W12G25    29.89F HX  92
Hartford         N/A    N/A N/A N/A MISG      29.89F
Danbury        MOSUNNY   88  69  53 VRB7      29.94F HX  92
Wtrbury/Oxford MOSUNNY   90  66  45 W5        29.95F HX  92
Bridgeport     MOSUNNY   91  60  35 SW8       29.91F HX  90
Meriden        PTSUNNY   90  69  50 SW6       29.91F HX  94
New Haven      MOSUNNY   89  64  43 S8        29.92F HX  90
Chester        FAIR      88  66  48 SW7G16    29.94S HX  90
Groton         MOSUNNY   85  65  51 SW8       29.91F
Wilimantic     MOSUNNY   91  68  46 VRB7      29.91F HX  95

 IN RI

CITY           SKY/WX    TMP DP  RH WIND       PRES   REMARKS
Providence     PTSUNNY   91  67  44 W15       29.90F HX  94
Block Island   MOSUNNY   84  65  52 SW14      29.94F
Westerly       MOSUNNY   90  64  42 SW8       29.92F HX  91
 IN MA

CITY           SKY/WX    TMP DP  RH WIND       PRES   REMARKS
Boston         PTSUNNY   88  66  48 W12       29.87F HX  90
Worcester      MOSUNNY   85  63  47 SW9       29.94F
Westfield      MOSUNNY   89  67  47 VRB6      29.89F HX  92
Provincetown   MOSUNNY   87  68  52 VRB3      29.90F HX  90
Nantucket      MOSUNNY   81  67  62 SW12      29.92F
$$

ANZ330-335-338-340-345-350-353-355-201900-
COASTAL MARINE OBSERVATIONS


STATION/POSITION TIME  SKY/WX   TEMP    WIND        PRES    VSBY  WAVE
                                AIR SEA DIR/SP/G                  HT/PER
                 (UTC)          (F)     (DEG/KT/KT) (MB)    (MI)  (FT/S)
NY HARB ENTRANCE 1650            81 78  150/  2/  2 1014.0          2/12
20 S FIRE ISLAND 1750            77 76  200/  8/ 10 1013.6          3/15
GREAT SOUTH BAY  1730            81 84  200/  8/ 10   N/A
23 SSW MONTAUK P 1650            77 77              1014.7          3/ 5
15 E BARNEGAT LI 1730               80                N/A           3/15
HUDSON CANYON    1650            79 79  230/ 12/ 12 1014.5          3/ 5
KINGS POINT      1730            89 73  290/  7/ 11 1013.1
EXECUTION ROCKS  1745            87     100/  2/  4   N/A
CENTRAL LI SOUND NOT AVBL
EASTERN LI SOUND NOT AVBL
ROBBINS REEF     1736                   260/ 11/ 15 1013.9
$$


>>>>>>>>>>>>>>>>>>>>>>>>>>>> KEY <<<<<<<<<<<<<<<<<<<<<<<<<<<
>                                                          <
>     SKY/WX - Sky Condition/Present Weather               <
>     TMP    - Temperature in Fahrenheit                   <
>     DP     - Dew Point in Fahrenheit                     <
>     RH     - Relative Humidity in Percent                <
>     WIND   - Direction (from) and Speed in MPH           <
>     PRES   - Mean Sea Level Pressure (inches of Hg)      <
>     WCI    - Wind Chill Index                            <
>     VSB    - VISIBILITY IN MILES                         <
>     HX     - HEAT INDEX                                  <
>     TC     - TEMPERATURE IN CELSIUS                      <
>     VRB    - VARIABLE WIND DIRECTION                     <
>                                                          <
>>>>>>>>>>>>>>>>>>>>>>>>>>>> KEY <<<<<<<<<<<<<<<<<<<<<<<<<<<



USA.gov is the U.S. government's official web portal to all federal, state and local government web resources and services.